contact:dominique.lefevre@mio.osupytheas.fr, maurice.libes@osupytheas.fr, didier.mallarino@osupytheas.fr
Project:EMSO http://www.emso-fr.org/EMSO-France
Depth: 2436.0 m
Title:EMSO Ligure Ouest : Data MII capteur MICROCAT
DateTime_Computer,Latitude,Longitude,Temperature,Conductivity,Pressure,DateTime_Instrument
DateTime_Computer,Latitude,Longitude,degC,S m-1,dbar,DateTime_Instrument
2023-10-28T00:02:21Z,42.805,6.029,13.3039,4.60114,2470.693,2023-10-28T02:04:46Z
2023-10-28T00:05:24Z,42.805,6.029,13.3037,4.60110,2470.693,2023-10-28T02:07:49Z
2023-10-28T00:08:27Z,42.805,6.029,13.3038,4.60113,2470.679,2023-10-28T02:10:52Z
2023-10-28T00:11:30Z,42.805,6.029,13.3037,4.60112,2470.717,2023-10-28T02:13:56Z
2023-10-28T00:14:33Z,42.805,6.029,13.3043,4.60111,2470.717,2023-10-28T02:16:59Z
2023-10-28T00:17:36Z,42.805,6.029,13.3038,4.60112,2470.707,2023-10-28T02:20:02Z
2023-10-28T00:20:39Z,42.805,6.029,13.3039,4.60123,2470.693,2023-10-28T02:23:05Z
2023-10-28T00:23:42Z,42.805,6.029,13.3041,4.60113,2470.693,2023-10-28T02:26:08Z
2023-10-28T00:26:45Z,42.805,6.029,13.3039,4.60115,2470.684,2023-10-28T02:29:11Z
2023-10-28T00:29:48Z,42.805,6.029,13.3049,4.60117,2470.707,2023-10-28T02:32:14Z
2023-10-28T00:32:52Z,42.805,6.029,13.3048,4.60125,2470.646,2023-10-28T02:35:17Z
2023-10-28T00:35:55Z,42.805,6.029,13.3039,4.60111,2470.707,2023-10-28T02:38:20Z
2023-10-28T00:38:58Z,42.805,6.029,13.3039,4.60113,2470.693,2023-10-28T02:41:23Z
2023-10-28T00:42:01Z,42.805,6.029,13.3043,4.60114,2470.717,2023-10-28T02:44:26Z
2023-10-28T00:45:04Z,42.805,6.029,13.3041,4.60114,2470.693,2023-10-28T02:47:29Z
2023-10-28T00:48:07Z,42.805,6.029,13.3041,4.60113,2470.633,2023-10-28T02:50:33Z
2023-10-28T00:51:10Z,42.805,6.029,13.3046,4.60115,2470.717,2023-10-28T02:53:36Z
2023-10-28T00:54:13Z,42.805,6.029,13.3037,4.60114,2470.656,2023-10-28T02:56:39Z
2023-10-28T00:57:16Z,42.805,6.029,13.3050,4.60118,2470.754,2023-10-28T02:59:42Z
2023-10-28T01:00:19Z,42.805,6.029,13.3040,4.60114,2470.67,2023-10-28T03:02:45Z
2023-10-28T01:03:22Z,42.805,6.029,13.3042,4.60117,2470.67,2023-10-28T03:05:48Z
2023-10-28T01:06:25Z,42.805,6.029,13.3037,4.60117,2470.693,2023-10-28T03:08:51Z
2023-10-28T01:09:28Z,42.805,6.029,13.3039,4.60113,2470.684,2023-10-28T03:11:54Z
2023-10-28T01:12:32Z,42.805,6.029,13.3040,4.60117,2470.707,2023-10-28T03:14:57Z
2023-10-28T01:15:35Z,42.805,6.029,13.3041,4.60117,2470.67,2023-10-28T03:18:00Z
2023-10-28T01:18:38Z,42.805,6.029,13.3039,4.60111,2470.67,2023-10-28T03:21:03Z
2023-10-28T01:21:41Z,42.805,6.029,13.3048,4.60123,2470.707,2023-10-28T03:24:06Z
2023-10-28T01:24:44Z,42.805,6.029,13.3038,4.60121,2470.646,2023-10-28T03:27:09Z
2023-10-28T01:27:47Z,42.805,6.029,13.3044,4.60114,2470.707,2023-10-28T03:30:13Z
2023-10-28T01:30:50Z,42.805,6.029,13.3038,4.60115,2470.67,2023-10-28T03:33:16Z
2023-10-28T01:33:53Z,42.805,6.029,13.3041,4.60127,2470.67,2023-10-28T03:36:19Z
2023-10-28T01:36:56Z,42.805,6.029,13.3041,4.60114,2470.707,2023-10-28T03:39:22Z
2023-10-28T01:39:59Z,42.805,6.029,13.3040,4.60117,2470.67,2023-10-28T03:42:25Z
2023-10-28T01:43:02Z,42.805,6.029,13.3039,4.60116,2470.707,2023-10-28T03:45:28Z
2023-10-28T01:46:05Z,42.805,6.029,13.3039,4.60117,2470.661,2023-10-28T03:48:31Z
2023-10-28T01:49:09Z,42.805,6.029,13.3041,4.60111,2470.693,2023-10-28T03:51:34Z
2023-10-28T01:52:12Z,42.805,6.029,13.3041,4.60115,2470.684,2023-10-28T03:54:37Z
2023-10-28T01:55:15Z,42.805,6.029,13.3046,4.60129,2470.693,2023-10-28T03:57:40Z
2023-10-28T01:58:18Z,42.805,6.029,13.3045,4.60127,2470.67,2023-10-28T04:00:43Z
2023-10-28T02:01:21Z,42.805,6.029,13.3040,4.60120,2470.693,2023-10-28T04:03:46Z
2023-10-28T02:04:24Z,42.805,6.029,13.3041,4.60122,2470.693,2023-10-28T04:06:50Z
2023-10-28T02:07:27Z,42.805,6.029,13.3043,4.60117,2470.693,2023-10-28T04:09:53Z
2023-10-28T02:10:30Z,42.805,6.029,13.3040,4.60112,2470.73,2023-10-28T04:12:56Z
2023-10-28T02:13:33Z,42.805,6.029,13.3043,4.60114,2470.717,2023-10-28T04:15:59Z
2023-10-28T02:16:36Z,42.805,6.029,13.3039,4.60118,2470.707,2023-10-28T04:19:02Z
2023-10-28T02:19:39Z,42.805,6.029,13.3041,4.60116,2470.74,2023-10-28T04:22:05Z
2023-10-28T02:22:42Z,42.805,6.029,13.3039,4.60114,2470.73,2023-10-28T04:25:08Z
2023-10-28T02:25:45Z,42.805,6.029,13.3040,4.60114,2470.693,2023-10-28T04:28:11Z
2023-10-28T02:28:49Z,42.805,6.029,13.3046,4.60127,2470.693,2023-10-28T04:31:14Z
2023-10-28T02:31:52Z,42.805,6.029,13.3043,4.60125,2470.74,2023-10-28T04:34:17Z
2023-10-28T02:34:55Z,42.805,6.029,13.3043,4.60119,2470.707,2023-10-28T04:37:20Z
2023-10-28T02:37:58Z,42.805,6.029,13.3040,4.60112,2470.693,2023-10-28T04:40:23Z
2023-10-28T02:41:01Z,42.805,6.029,13.3041,4.60120,2470.74,2023-10-28T04:43:27Z
2023-10-28T02:44:04Z,42.805,6.029,13.3037,4.60114,2470.717,2023-10-28T04:46:30Z
2023-10-28T02:47:07Z,42.805,6.029,13.3043,4.60113,2470.74,2023-10-28T04:49:33Z
2023-10-28T02:50:10Z,42.805,6.029,13.3051,4.60127,2470.717,2023-10-28T04:52:36Z
2023-10-28T02:53:13Z,42.805,6.029,13.3043,4.60117,2470.73,2023-10-28T04:55:39Z
2023-10-28T02:56:16Z,42.805,6.029,13.3041,4.60117,2470.717,2023-10-28T04:58:42Z
2023-10-28T02:59:19Z,42.805,6.029,13.3043,4.60119,2470.73,2023-10-28T05:01:45Z
2023-10-28T03:02:22Z,42.805,6.029,13.3040,4.60123,2470.763,2023-10-28T05:04:48Z
2023-10-28T03:05:26Z,42.805,6.029,13.3045,4.60116,2470.763,2023-10-28T05:07:51Z
2023-10-28T03:08:29Z,42.805,6.029,13.3041,4.60122,2470.777,2023-10-28T05:10:54Z
2023-10-28T03:11:32Z,42.805,6.029,13.3044,4.60122,2470.8,2023-10-28T05:13:57Z
2023-10-28T03:14:35Z,42.805,6.029,13.3040,4.60114,2470.787,2023-10-28T05:17:00Z
2023-10-28T03:17:38Z,42.805,6.029,13.3044,4.60117,2470.754,2023-10-28T05:20:04Z
2023-10-28T03:20:41Z,42.805,6.029,13.3041,4.60134,2470.777,2023-10-28T05:23:07Z
2023-10-28T03:23:44Z,42.805,6.029,13.3039,4.60114,2470.74,2023-10-28T05:26:10Z
2023-10-28T03:26:47Z,42.805,6.029,13.3039,4.60119,2470.8,2023-10-28T05:29:13Z
2023-10-28T03:29:50Z,42.805,6.029,13.3039,4.60120,2470.777,2023-10-28T05:32:16Z
2023-10-28T03:32:53Z,42.805,6.029,13.3043,4.60122,2470.8,2023-10-28T05:35:19Z
2023-10-28T03:35:56Z,42.805,6.029,13.3042,4.60115,2470.763,2023-10-28T05:38:22Z
2023-10-28T03:38:59Z,42.805,6.029,13.3044,4.60127,2470.824,2023-10-28T05:41:25Z
2023-10-28T03:42:03Z,42.805,6.029,13.3042,4.60115,2470.81,2023-10-28T05:44:28Z
2023-10-28T03:45:06Z,42.805,6.029,13.3044,4.60116,2470.787,2023-10-28T05:47:31Z
2023-10-28T03:48:09Z,42.805,6.029,13.3047,4.60125,2470.81,2023-10-28T05:50:34Z
2023-10-28T03:51:12Z,42.805,6.029,13.3046,4.60117,2470.824,2023-10-28T05:53:37Z
2023-10-28T03:54:15Z,42.805,6.029,13.3045,4.60120,2470.81,2023-10-28T05:56:40Z
2023-10-28T03:57:18Z,42.805,6.029,13.3041,4.60127,2470.787,2023-10-28T05:59:44Z
2023-10-28T04:00:21Z,42.805,6.029,13.3043,4.60135,2470.81,2023-10-28T06:02:47Z
2023-10-28T04:03:24Z,42.805,6.029,13.3043,4.60116,2470.824,2023-10-28T06:05:50Z
2023-10-28T04:06:27Z,42.805,6.029,13.3042,4.60124,2470.81,2023-10-28T06:08:53Z
2023-10-28T04:09:30Z,42.805,6.029,13.3047,4.60130,2470.871,2023-10-28T06:11:56Z
2023-10-28T04:12:33Z,42.805,6.029,13.3044,4.60129,2470.81,2023-10-28T06:14:59Z
2023-10-28T04:15:36Z,42.805,6.029,13.3040,4.60123,2470.81,2023-10-28T06:18:02Z
2023-10-28T04:18:40Z,42.805,6.029,13.3041,4.60119,2470.833,2023-10-28T06:21:05Z
2023-10-28T04:21:43Z,42.805,6.029,13.3045,4.60131,2470.833,2023-10-28T06:24:08Z
2023-10-28T04:24:46Z,42.805,6.029,13.3044,4.60116,2470.833,2023-10-28T06:27:11Z
2023-10-28T04:27:49Z,42.805,6.029,13.3039,4.60116,2470.81,2023-10-28T06:30:14Z
2023-10-28T04:30:51Z,42.805,6.029,13.3040,4.60119,2470.833,2023-10-28T06:33:16Z
2023-10-28T04:33:54Z,42.805,6.029,13.3043,4.60132,2470.847,2023-10-28T06:36:19Z
2023-10-28T04:36:57Z,42.805,6.029,13.3038,4.60120,2470.904,2023-10-28T06:39:23Z
2023-10-28T04:40:00Z,42.805,6.029,13.3036,4.60114,2470.847,2023-10-28T06:42:26Z
2023-10-28T04:43:03Z,42.805,6.029,13.3042,4.60115,2470.857,2023-10-28T06:45:29Z
2023-10-28T04:46:06Z,42.805,6.029,13.3043,4.60115,2470.857,2023-10-28T06:48:32Z
2023-10-28T04:49:09Z,42.805,6.029,13.3042,4.60115,2470.857,2023-10-28T06:51:35Z
2023-10-28T04:52:12Z,42.805,6.029,13.3038,4.60119,2470.857,2023-10-28T06:54:38Z
2023-10-28T04:55:15Z,42.805,6.029,13.3041,4.60121,2470.833,2023-10-28T06:57:41Z
2023-10-28T04:58:18Z,42.805,6.029,13.3040,4.60116,2470.847,2023-10-28T07:00:44Z
2023-10-28T05:01:22Z,42.805,6.029,13.3040,4.60115,2470.857,2023-10-28T07:03:47Z
2023-10-28T05:04:25Z,42.805,6.029,13.3041,4.60113,2470.871,2023-10-28T07:06:50Z
2023-10-28T05:07:28Z,42.805,6.029,13.3042,4.60113,2470.871,2023-10-28T07:09:53Z
2023-10-28T05:10:31Z,42.805,6.029,13.3040,4.60113,2470.88,2023-10-28T07:12:56Z
2023-10-28T05:13:34Z,42.805,6.029,13.3038,4.60117,2470.894,2023-10-28T07:16:00Z
2023-10-28T05:16:37Z,42.805,6.029,13.3046,4.60119,2470.88,2023-10-28T07:19:03Z
2023-10-28T05:19:40Z,42.805,6.029,13.3037,4.60129,2470.88,2023-10-28T07:22:06Z
2023-10-28T05:22:43Z,42.805,6.029,13.3039,4.60114,2470.871,2023-10-28T07:25:09Z
2023-10-28T05:25:46Z,42.805,6.029,13.3044,4.60129,2470.88,2023-10-28T07:28:12Z
2023-10-28T05:28:49Z,42.805,6.029,13.3039,4.60120,2470.904,2023-10-28T07:31:15Z
2023-10-28T05:31:52Z,42.805,6.029,13.3039,4.60113,2470.917,2023-10-28T07:34:18Z
2023-10-28T05:34:55Z,42.805,6.029,13.3041,4.60119,2470.894,2023-10-28T07:37:21Z
2023-10-28T05:37:59Z,42.805,6.029,13.3046,4.60125,2470.88,2023-10-28T07:40:24Z
2023-10-28T05:41:02Z,42.805,6.029,13.3044,4.60127,2470.88,2023-10-28T07:43:27Z
2023-10-28T05:44:05Z,42.805,6.029,13.3037,4.60116,2470.904,2023-10-28T07:46:30Z
2023-10-28T05:47:08Z,42.805,6.029,13.3043,4.60117,2470.927,2023-10-28T07:49:33Z
2023-10-28T05:50:11Z,42.805,6.029,13.3040,4.60117,2470.904,2023-10-28T07:52:37Z
2023-10-28T05:53:14Z,42.805,6.029,13.3039,4.60120,2470.904,2023-10-28T07:55:40Z
2023-10-28T05:56:17Z,42.805,6.029,13.3043,4.60121,2470.88,2023-10-28T07:58:43Z
2023-10-28T05:59:20Z,42.805,6.029,13.3043,4.60115,2470.904,2023-10-28T08:01:46Z
2023-10-28T06:02:23Z,42.805,6.029,13.3040,4.60114,2470.904,2023-10-28T08:04:49Z
2023-10-28T06:05:26Z,42.805,6.029,13.3039,4.60115,2470.917,2023-10-28T08:07:52Z
2023-10-28T06:08:29Z,42.805,6.029,13.3044,4.60122,2470.904,2023-10-28T08:10:55Z
2023-10-28T06:11:32Z,42.805,6.029,13.3041,4.60116,2470.904,2023-10-28T08:13:58Z
2023-10-28T06:14:36Z,42.805,6.029,13.3041,4.60112,2470.94,2023-10-28T08:17:01Z
2023-10-28T06:17:39Z,42.805,6.029,13.3044,4.60116,2470.904,2023-10-28T08:20:04Z
2023-10-28T06:20:42Z,42.805,6.029,13.3038,4.60116,2470.94,2023-10-28T08:23:07Z
2023-10-28T06:23:45Z,42.805,6.029,13.3034,4.60115,2470.94,2023-10-28T08:26:10Z
2023-10-28T06:26:48Z,42.805,6.029,13.3038,4.60125,2470.94,2023-10-28T08:29:13Z
2023-10-28T06:29:51Z,42.805,6.029,13.3039,4.60117,2470.94,2023-10-28T08:32:17Z
2023-10-28T06:32:54Z,42.805,6.029,13.3043,4.60115,2470.927,2023-10-28T08:35:20Z
2023-10-28T06:35:57Z,42.805,6.029,13.3043,4.60123,2470.913,2023-10-28T08:38:23Z
2023-10-28T06:39:00Z,42.805,6.029,13.3039,4.60113,2470.904,2023-10-28T08:41:26Z
2023-10-28T06:42:03Z,42.805,6.029,13.3042,4.60120,2470.927,2023-10-28T08:44:29Z
2023-10-28T06:45:06Z,42.805,6.029,13.3043,4.60112,2470.927,2023-10-28T08:47:32Z
2023-10-28T06:48:09Z,42.805,6.029,13.3040,4.60114,2470.904,2023-10-28T08:50:35Z
2023-10-28T06:51:12Z,42.805,6.029,13.3035,4.60116,2470.904,2023-10-28T08:53:38Z
2023-10-28T06:54:16Z,42.805,6.029,13.3039,4.60113,2470.95,2023-10-28T08:56:41Z
2023-10-28T06:57:19Z,42.805,6.029,13.3043,4.60117,2470.94,2023-10-28T08:59:44Z
2023-10-28T07:00:22Z,42.805,6.029,13.3037,4.60114,2470.94,2023-10-28T09:02:47Z
2023-10-28T07:03:25Z,42.805,6.029,13.3036,4.60112,2470.927,2023-10-28T09:05:50Z
2023-10-28T07:06:28Z,42.805,6.029,13.3037,4.60111,2470.927,2023-10-28T09:08:53Z
2023-10-28T07:09:31Z,42.805,6.029,13.3039,4.60114,2470.95,2023-10-28T09:11:57Z
2023-10-28T07:12:34Z,42.805,6.029,13.3039,4.60114,2470.904,2023-10-28T09:15:00Z
2023-10-28T07:15:37Z,42.805,6.029,13.3037,4.60112,2470.927,2023-10-28T09:18:03Z
2023-10-28T07:18:40Z,42.805,6.029,13.3036,4.60110,2470.927,2023-10-28T09:21:06Z
2023-10-28T07:21:43Z,42.805,6.029,13.3034,4.60114,2470.904,2023-10-28T09:24:09Z
2023-10-28T07:24:46Z,42.805,6.029,13.3039,4.60114,2470.904,2023-10-28T09:27:12Z
2023-10-28T07:27:49Z,42.805,6.029,13.3041,4.60117,2470.917,2023-10-28T09:30:15Z
2023-10-28T07:30:52Z,42.805,6.029,13.3041,4.60115,2470.927,2023-10-28T09:33:18Z
2023-10-28T07:33:56Z,42.805,6.029,13.3046,4.60115,2470.894,2023-10-28T09:36:21Z
2023-10-28T07:36:59Z,42.805,6.029,13.3042,4.60117,2470.927,2023-10-28T09:39:24Z
2023-10-28T07:40:02Z,42.805,6.029,13.3039,4.60112,2470.894,2023-10-28T09:42:27Z
2023-10-28T07:43:05Z,42.805,6.029,13.3041,4.60112,2470.917,2023-10-28T09:45:30Z
2023-10-28T07:46:08Z,42.805,6.029,13.3039,4.60114,2470.904,2023-10-28T09:48:34Z
2023-10-28T07:49:11Z,42.805,6.029,13.3043,4.60117,2470.894,2023-10-28T09:51:37Z
2023-10-28T07:52:14Z,42.805,6.029,13.3039,4.60112,2470.904,2023-10-28T09:54:40Z
2023-10-28T07:55:17Z,42.805,6.029,13.3045,4.60114,2470.904,2023-10-28T09:57:43Z
2023-10-28T07:58:20Z,42.805,6.029,13.3035,4.60112,2470.894,2023-10-28T10:00:46Z
2023-10-28T08:01:23Z,42.805,6.029,13.3039,4.60114,2470.94,2023-10-28T10:03:49Z
2023-10-28T08:04:26Z,42.805,6.029,13.3039,4.60113,2470.904,2023-10-28T10:06:52Z
2023-10-28T08:07:29Z,42.805,6.029,13.3043,4.60113,2470.904,2023-10-28T10:09:55Z
2023-10-28T08:10:33Z,42.805,6.029,13.3045,4.60123,2470.904,2023-10-28T10:12:58Z
2023-10-28T08:13:36Z,42.805,6.029,13.3045,4.60119,2470.904,2023-10-28T10:16:01Z
2023-10-28T08:16:39Z,42.805,6.029,13.3039,4.60114,2470.894,2023-10-28T10:19:04Z
2023-10-28T08:19:42Z,42.805,6.029,13.3042,4.60125,2470.94,2023-10-28T10:22:07Z
2023-10-28T08:22:45Z,42.805,6.029,13.3041,4.60115,2470.89,2023-10-28T10:25:10Z
2023-10-28T08:25:48Z,42.805,6.029,13.3041,4.60127,2470.857,2023-10-28T10:28:14Z
2023-10-28T08:28:51Z,42.805,6.029,13.3040,4.60112,2470.88,2023-10-28T10:31:17Z
2023-10-28T08:31:54Z,42.805,6.029,13.3039,4.60112,2470.847,2023-10-28T10:34:20Z
2023-10-28T08:34:57Z,42.805,6.029,13.3040,4.60114,2470.894,2023-10-28T10:37:23Z
2023-10-28T08:38:00Z,42.805,6.029,13.3037,4.60114,2470.88,2023-10-28T10:40:26Z
2023-10-28T08:41:03Z,42.805,6.029,13.3042,4.60113,2470.88,2023-10-28T10:43:29Z
2023-10-28T08:44:06Z,42.805,6.029,13.3037,4.60111,2470.894,2023-10-28T10:46:32Z
2023-10-28T08:47:10Z,42.805,6.029,13.3039,4.60110,2470.88,2023-10-28T10:49:35Z
2023-10-28T08:50:13Z,42.805,6.029,13.3036,4.60112,2470.88,2023-10-28T10:52:38Z
2023-10-28T08:53:16Z,42.805,6.029,13.3041,4.60112,2470.904,2023-10-28T10:55:41Z
2023-10-28T08:56:19Z,42.805,6.029,13.3039,4.60116,2470.871,2023-10-28T10:58:44Z
2023-10-28T08:59:22Z,42.805,6.029,13.3036,4.60112,2470.847,2023-10-28T11:01:48Z
2023-10-28T09:02:25Z,42.805,6.029,13.3040,4.60113,2470.833,2023-10-28T11:04:51Z
2023-10-28T09:05:28Z,42.805,6.029,13.3043,4.60123,2470.894,2023-10-28T11:07:54Z
2023-10-28T09:08:31Z,42.805,6.029,13.3043,4.60116,2470.871,2023-10-28T11:10:57Z
2023-10-28T09:11:34Z,42.805,6.029,13.3041,4.60117,2470.857,2023-10-28T11:14:00Z
2023-10-28T09:14:37Z,42.805,6.029,13.3042,4.60127,2470.88,2023-10-28T11:17:03Z
2023-10-28T09:17:40Z,42.805,6.029,13.3039,4.60112,2470.857,2023-10-28T11:20:06Z
2023-10-28T09:20:43Z,42.805,6.029,13.3042,4.60116,2470.847,2023-10-28T11:23:09Z
2023-10-28T09:23:47Z,42.805,6.029,13.3042,4.60114,2470.871,2023-10-28T11:26:12Z
2023-10-28T09:26:50Z,42.805,6.029,13.3040,4.60115,2470.833,2023-10-28T11:29:15Z
2023-10-28T09:29:53Z,42.805,6.029,13.3042,4.60122,2470.847,2023-10-28T11:32:18Z
2023-10-28T09:32:56Z,42.805,6.029,13.3041,4.60114,2470.833,2023-10-28T11:35:21Z
2023-10-28T09:35:59Z,42.805,6.029,13.3041,4.60115,2470.833,2023-10-28T11:38:25Z
2023-10-28T09:39:02Z,42.805,6.029,13.3041,4.60115,2470.871,2023-10-28T11:41:28Z
2023-10-28T09:42:05Z,42.805,6.029,13.3036,4.60111,2470.833,2023-10-28T11:44:31Z
2023-10-28T09:45:08Z,42.805,6.029,13.3042,4.60113,2470.857,2023-10-28T11:47:34Z
2023-10-28T09:48:11Z,42.805,6.029,13.3041,4.60111,2470.857,2023-10-28T11:50:37Z
2023-10-28T09:51:14Z,42.805,6.029,13.3040,4.60115,2470.847,2023-10-28T11:53:40Z
2023-10-28T09:54:17Z,42.805,6.029,13.3039,4.60113,2470.833,2023-10-28T11:56:43Z
2023-10-28T09:57:20Z,42.805,6.029,13.3036,4.60116,2470.82,2023-10-28T11:59:46Z
2023-10-28T10:00:24Z,42.805,6.029,13.3041,4.60114,2470.824,2023-10-28T12:02:49Z
2023-10-28T10:03:27Z,42.805,6.029,13.3045,4.60113,2470.847,2023-10-28T12:05:52Z
2023-10-28T10:06:30Z,42.805,6.029,13.3041,4.60122,2470.824,2023-10-28T12:08:55Z
2023-10-28T10:09:33Z,42.805,6.029,13.3042,4.60116,2470.8,2023-10-28T12:11:58Z
2023-10-28T10:12:36Z,42.805,6.029,13.3037,4.60112,2470.833,2023-10-28T12:15:02Z
2023-10-28T10:15:39Z,42.805,6.029,13.3044,4.60114,2470.833,2023-10-28T12:18:05Z
2023-10-28T10:18:42Z,42.805,6.029,13.3041,4.60112,2470.824,2023-10-28T12:21:08Z
2023-10-28T10:21:45Z,42.805,6.029,13.3041,4.60114,2470.81,2023-10-28T12:24:11Z
2023-10-28T10:24:48Z,42.805,6.029,13.3039,4.60114,2470.847,2023-10-28T12:27:14Z
2023-10-28T10:27:51Z,42.805,6.029,13.3042,4.60115,2470.787,2023-10-28T12:30:17Z
2023-10-28T10:30:56Z,42.805,6.029,13.3041,4.60112,2470.787,2023-10-28T12:33:22Z
2023-10-28T10:33:59Z,42.805,6.029,13.3045,4.60125,2470.81,2023-10-28T12:36:25Z
2023-10-28T10:37:02Z,42.805,6.029,13.3038,4.60116,2470.787,2023-10-28T12:39:28Z
2023-10-28T10:40:05Z,42.805,6.029,13.3041,4.60125,2470.81,2023-10-28T12:42:31Z
2023-10-28T10:43:09Z,42.805,6.029,13.3041,4.60119,2470.8,2023-10-28T12:45:34Z
2023-10-28T10:46:12Z,42.805,6.029,13.3039,4.60119,2470.81,2023-10-28T12:48:37Z
2023-10-28T10:49:15Z,42.805,6.029,13.3039,4.60118,2470.8,2023-10-28T12:51:40Z
2023-10-28T10:52:18Z,42.805,6.029,13.3041,4.60111,2470.8,2023-10-28T12:54:43Z
2023-10-28T10:55:21Z,42.805,6.029,13.3041,4.60109,2470.787,2023-10-28T12:57:47Z
2023-10-28T10:58:24Z,42.805,6.029,13.3043,4.60120,2470.763,2023-10-28T13:00:50Z
2023-10-28T11:01:27Z,42.805,6.029,13.3043,4.60110,2470.787,2023-10-28T13:03:53Z
2023-10-28T11:04:30Z,42.805,6.029,13.3039,4.60114,2470.787,2023-10-28T13:06:56Z
2023-10-28T11:07:33Z,42.805,6.029,13.3042,4.60122,2470.773,2023-10-28T13:09:59Z
2023-10-28T11:10:36Z,42.805,6.029,13.3041,4.60115,2470.763,2023-10-28T13:13:02Z
2023-10-28T11:13:39Z,42.805,6.029,13.3041,4.60113,2470.8,2023-10-28T13:16:05Z
2023-10-28T11:16:43Z,42.805,6.029,13.3041,4.60117,2470.763,2023-10-28T13:19:08Z
2023-10-28T11:19:46Z,42.805,6.029,13.3046,4.60125,2470.777,2023-10-28T13:22:11Z
2023-10-28T11:22:49Z,42.805,6.029,13.3050,4.60117,2470.73,2023-10-28T13:25:14Z
2023-10-28T11:25:52Z,42.805,6.029,13.3043,4.60113,2470.74,2023-10-28T13:28:17Z
2023-10-28T11:28:55Z,42.805,6.029,13.3038,4.60110,2470.763,2023-10-28T13:31:21Z
2023-10-28T11:31:58Z,42.805,6.029,13.3039,4.60112,2470.754,2023-10-28T13:34:24Z
2023-10-28T11:35:01Z,42.805,6.029,13.3046,4.60121,2470.74,2023-10-28T13:37:27Z
2023-10-28T11:38:04Z,42.805,6.029,13.3043,4.60115,2470.81,2023-10-28T13:40:30Z
2023-10-28T11:41:07Z,42.805,6.029,13.3039,4.60111,2470.74,2023-10-28T13:43:33Z
2023-10-28T11:44:10Z,42.805,6.029,13.3043,4.60117,2470.74,2023-10-28T13:46:36Z
2023-10-28T11:47:13Z,42.805,6.029,13.3041,4.60113,2470.763,2023-10-28T13:49:39Z
2023-10-28T11:50:17Z,42.805,6.029,13.3041,4.60110,2470.8,2023-10-28T13:52:42Z
2023-10-28T11:53:20Z,42.805,6.029,13.3042,4.60125,2470.754,2023-10-28T13:55:45Z
2023-10-28T11:56:23Z,42.805,6.029,13.3046,4.60114,2470.74,2023-10-28T13:58:48Z
2023-10-28T11:59:26Z,42.805,6.029,13.3037,4.60113,2470.717,2023-10-28T14:01:51Z
2023-10-28T12:02:29Z,42.805,6.029,13.3041,4.60115,2470.754,2023-10-28T14:04:55Z
2023-10-28T12:05:32Z,42.805,6.029,13.3037,4.60127,2470.763,2023-10-28T14:07:58Z
2023-10-28T12:08:35Z,42.805,6.029,13.3041,4.60115,2470.74,2023-10-28T14:11:01Z
2023-10-28T12:11:38Z,42.805,6.029,13.3041,4.60114,2470.717,2023-10-28T14:14:04Z
2023-10-28T12:14:41Z,42.805,6.029,13.3043,4.60113,2470.717,2023-10-28T14:17:07Z
2023-10-28T12:17:44Z,42.805,6.029,13.3041,4.60112,2470.73,2023-10-28T14:20:10Z
2023-10-28T12:20:47Z,42.805,6.029,13.3041,4.60125,2470.717,2023-10-28T14:23:13Z
2023-10-28T12:23:50Z,42.805,6.029,13.3042,4.60117,2470.754,2023-10-28T14:26:16Z
2023-10-28T12:26:54Z,42.805,6.029,13.3045,4.60113,2470.717,2023-10-28T14:29:19Z
2023-10-28T12:29:57Z,42.805,6.029,13.3039,4.60114,2470.717,2023-10-28T14:32:22Z
2023-10-28T12:33:00Z,42.805,6.029,13.3041,4.60112,2470.73,2023-10-28T14:35:25Z
2023-10-28T12:36:03Z,42.805,6.029,13.3043,4.60122,2470.754,2023-10-28T14:38:28Z
2023-10-28T12:39:06Z,42.805,6.029,13.3045,4.60127,2470.693,2023-10-28T14:41:32Z
2023-10-28T12:42:09Z,42.805,6.029,13.3048,4.60114,2470.717,2023-10-28T14:44:35Z
2023-10-28T12:45:12Z,42.805,6.029,13.3043,4.60113,2470.707,2023-10-28T14:47:38Z
2023-10-28T12:48:15Z,42.805,6.029,13.3042,4.60116,2470.74,2023-10-28T14:50:41Z
2023-10-28T12:51:18Z,42.805,6.029,13.3049,4.60120,2470.717,2023-10-28T14:53:44Z
2023-10-28T12:54:21Z,42.805,6.029,13.3042,4.60114,2470.693,2023-10-28T14:56:47Z
2023-10-28T12:57:24Z,42.805,6.029,13.3041,4.60116,2470.707,2023-10-28T14:59:50Z
2023-10-28T13:00:28Z,42.805,6.029,13.3046,4.60127,2470.717,2023-10-28T15:02:53Z
2023-10-28T13:03:31Z,42.805,6.029,13.3041,4.60119,2470.717,2023-10-28T15:05:56Z
2023-10-28T13:06:34Z,42.805,6.029,13.3043,4.60116,2470.67,2023-10-28T15:08:59Z
2023-10-28T13:09:37Z,42.805,6.029,13.3044,4.60126,2470.73,2023-10-28T15:12:02Z
2023-10-28T13:12:40Z,42.805,6.029,13.3042,4.60119,2470.717,2023-10-28T15:15:06Z
2023-10-28T13:15:43Z,42.805,6.029,13.3039,4.60119,2470.717,2023-10-28T15:18:09Z
2023-10-28T13:18:46Z,42.805,6.029,13.3042,4.60114,2470.693,2023-10-28T15:21:12Z
2023-10-28T13:21:49Z,42.805,6.029,13.3043,4.60114,2470.73,2023-10-28T15:24:15Z
2023-10-28T13:24:52Z,42.805,6.029,13.3043,4.60113,2470.717,2023-10-28T15:27:18Z
2023-10-28T13:27:55Z,42.805,6.029,13.3044,4.60112,2470.73,2023-10-28T15:30:21Z
2023-10-28T13:30:58Z,42.805,6.029,13.3041,4.60113,2470.693,2023-10-28T15:33:24Z
2023-10-28T13:34:02Z,42.805,6.029,13.3042,4.60112,2470.73,2023-10-28T15:36:27Z
2023-10-28T13:37:05Z,42.805,6.029,13.3040,4.60114,2470.73,2023-10-28T15:39:30Z
2023-10-28T13:40:08Z,42.805,6.029,13.3043,4.60115,2470.73,2023-10-28T15:42:33Z
2023-10-28T13:43:11Z,42.805,6.029,13.3041,4.60114,2470.717,2023-10-28T15:45:36Z
2023-10-28T13:46:14Z,42.805,6.029,13.3044,4.60117,2470.73,2023-10-28T15:48:40Z
2023-10-28T13:49:17Z,42.805,6.029,13.3041,4.60114,2470.73,2023-10-28T15:51:43Z
2023-10-28T13:52:20Z,42.805,6.029,13.3042,4.60132,2470.73,2023-10-28T15:54:46Z
2023-10-28T13:55:23Z,42.805,6.029,13.3044,4.60115,2470.717,2023-10-28T15:57:49Z
2023-10-28T13:58:26Z,42.805,6.029,13.3039,4.60112,2470.73,2023-10-28T16:00:52Z
2023-10-28T14:01:29Z,42.805,6.029,13.3039,4.60110,2470.777,2023-10-28T16:03:55Z
2023-10-28T14:04:32Z,42.805,6.029,13.3046,4.60115,2470.73,2023-10-28T16:06:58Z
2023-10-28T14:07:35Z,42.805,6.029,13.3039,4.60117,2470.74,2023-10-28T16:10:01Z
2023-10-28T14:10:39Z,42.805,6.029,13.3041,4.60114,2470.73,2023-10-28T16:13:04Z
2023-10-28T14:13:42Z,42.805,6.029,13.3045,4.60117,2470.754,2023-10-28T16:16:07Z
2023-10-28T14:16:45Z,42.805,6.029,13.3043,4.60114,2470.73,2023-10-28T16:19:10Z
2023-10-28T14:19:48Z,42.805,6.029,13.3043,4.60116,2470.74,2023-10-28T16:22:14Z
2023-10-28T14:22:51Z,42.805,6.029,13.3040,4.60116,2470.754,2023-10-28T16:25:17Z
2023-10-28T14:25:54Z,42.805,6.029,13.3044,4.60117,2470.763,2023-10-28T16:28:20Z
2023-10-28T14:28:57Z,42.805,6.029,13.3037,4.60112,2470.717,2023-10-28T16:31:23Z
2023-10-28T14:32:00Z,42.805,6.029,13.3039,4.60115,2470.74,2023-10-28T16:34:26Z
2023-10-28T14:35:03Z,42.805,6.029,13.3052,4.60127,2470.74,2023-10-28T16:37:29Z
2023-10-28T14:38:06Z,42.805,6.029,13.3040,4.60112,2470.754,2023-10-28T16:40:32Z
2023-10-28T14:41:09Z,42.805,6.029,13.3039,4.60125,2470.717,2023-10-28T16:43:35Z
2023-10-28T14:44:12Z,42.805,6.029,13.3044,4.60112,2470.717,2023-10-28T16:46:38Z
2023-10-28T14:47:15Z,42.805,6.029,13.3045,4.60123,2470.74,2023-10-28T16:49:41Z
2023-10-28T14:50:18Z,42.805,6.029,13.3046,4.60130,2470.763,2023-10-28T16:52:44Z
2023-10-28T14:53:22Z,42.805,6.029,13.3042,4.60117,2470.763,2023-10-28T16:55:47Z
2023-10-28T14:56:25Z,42.805,6.029,13.3054,4.60124,2470.763,2023-10-28T16:58:50Z
2023-10-28T14:59:28Z,42.805,6.029,13.3039,4.60112,2470.74,2023-10-28T17:01:53Z
2023-10-28T15:02:31Z,42.805,6.029,13.3046,4.60114,2470.777,2023-10-28T17:04:56Z